Douglas, WY

4:44 PM MDT on September 19, 2017 (GMT -0600)
Converse County

Weather History for KDGW - October, 2012

Change the Weather History Date:

Wednesday, October 24, 2012

  Actual Average Record
Temperature  
Mean Temperature 33 °F 43 °F  
Max Temperature 43 °F 58 °F 79 °F (2014)
Min Temperature 23 °F 28 °F 21 °F (2005)
Degree Days  
Heating Degree Days 32 22  
Month to date heating degree days 462 435  
Since 1 July heating degree days 590 704  
Cooling Degree Days 0 0  
Month to date cooling degree days 0 0  
Year to date cooling degree days 831 486  
Moisture  
Dew Point 30 °F    
Average Humidity 79    
Maximum Humidity 100    
Minimum Humidity 57    
Precipitation  
Precipitation 0.44 in 0.03 in 0.53 in (2012)
Month to date precipitation 0.76 0.92  
Year to date precipitation 4.95 12.20  
Sea Level Pressure  
Sea Level Pressure 29.99 in    
Wind  
Wind Speed 7 mph (NNW)    
Max Wind Speed 18 mph    
Max Gust Speed 22 mph    
Visibility 5 miles    
Events Rain , Snow    
T = Trace of Precipitation, MM = Missing Value Source: NWS Daily Summary

Daily Weather History Graph

Daily Weather History Graph

Search for Another Location

Airport or City:

Trip Planner

Search our weather history database for the weather conditions in past years. The results will help you decide how hot, cold, wet, or windy it might be!

Date:

Astronomy

Oct. 24, 2012 Rise Set
Actual Time 7:26 AM MDT 6:04 PM MDT
Civil Twilight 6:57 AM MDT 6:33 PM MDT
Nautical Twilight 6:24 AM MDT 7:06 PM MDT
Astronomical Twilight 5:51 AM MDT 7:39 PM MDT
Moon 3:27 PM MDT (10/24) 2:17 AM MDT (10/24)
Length of Visible Light 11h 35m
Length of Day
10h 37m
Waxing Gibbous, 76% of the Moon is Illuminated
Oct 24
Waxing Gibbous
Oct 29
Full
Nov 6
Last Quarter
Nov 13
New
Nov 20
First Quarter

Hourly Weather History & Observations

Time (MDT) Temp. Windchill Dew Point Humidity Pressure Visibility Wind Dir Wind Speed Gust Speed Precip Events Conditions
12:53 AM 43.0 °F 36.8 °F 28.9 °F 58% 29.83 in 10.0 mi NW 11.5 mph - N/A   Overcast
1:53 AM 41.0 °F 35.2 °F 30.9 °F 67% 29.88 in 10.0 mi NW 9.2 mph - N/A   Overcast
2:53 AM 41.0 °F 35.8 °F 30.0 °F 65% 29.89 in 10.0 mi NW 8.1 mph - N/A   Overcast
3:53 AM 39.9 °F 33.9 °F 30.0 °F 68% 29.92 in 10.0 mi NW 9.2 mph - 0.00 in   Overcast
4:53 AM 39.0 °F 31.4 °F 30.9 °F 73% 29.93 in 10.0 mi NW 12.7 mph - 0.00 in Rain Light Rain
5:53 AM 36.0 °F 28.0 °F 33.1 °F 89% 29.96 in 10.0 mi WNW 11.5 mph - 0.01 in Rain Light Rain
6:02 AM 35.6 °F 28.0 °F 33.8 °F 93% 29.97 in 10.0 mi WNW 10.4 mph - 0.01 in Rain Rain
6:48 AM 33.8 °F 27.0 °F 32.0 °F 93% 29.96 in 10.0 mi NNW 8.1 mph - 0.05 in Snow Light Snow
6:53 AM 34.0 °F 28.0 °F 32.0 °F 92% 29.97 in 9.0 mi NNW 6.9 mph - 0.05 in Snow Light Snow
7:29 AM 33.8 °F - 32.0 °F 93% 29.96 in 6.0 mi Calm Calm - 0.03 in Snow Light Snow
7:42 AM 33.8 °F - 32.0 °F 93% 29.97 in 2.5 mi Calm Calm - 0.03 in Snow Light Snow
7:47 AM 32.0 °F - 30.2 °F 93% 29.96 in 1.8 mi Calm Calm - 0.03 in Snow Light Snow
7:53 AM 32.0 °F - 30.9 °F 96% 29.98 in 1.5 mi Calm Calm - 0.03 in Snow Light Snow
8:04 AM 32.0 °F - 32.0 °F 100% 29.97 in 1.5 mi Calm Calm - 0.01 in Snow Light Snow
8:53 AM 32.0 °F - 32.0 °F 100% 29.99 in 1.2 mi Calm Calm - 0.01 in Snow Light Snow
9:02 AM 32.0 °F - 32.0 °F 100% 29.98 in 1.2 mi Calm Calm - 0.00 in Snow Light Snow
9:15 AM 32.0 °F - 32.0 °F 100% 29.98 in 1.2 mi Calm Calm - 0.00 in Snow Light Snow
10:03 AM 33.8 °F - 32.0 °F 93% 29.96 in 3.0 mi Calm Calm - 0.02 in Snow Light Snow
10:10 AM 33.8 °F 30.8 °F 30.2 °F 87% 29.96 in 2.5 mi NNW 3.5 mph - 0.03 in Snow Light Snow
10:22 AM 32.0 °F 28.7 °F 32.0 °F 100% 29.96 in 2.5 mi NW 3.5 mph - 0.05 in Snow Light Snow
10:26 AM 32.0 °F 27.5 °F 32.0 °F 100% 29.96 in 3.0 mi NW 4.6 mph - 0.06 in Snow Light Snow
10:33 AM 32.0 °F 28.7 °F 32.0 °F 100% 29.96 in 3.0 mi NW 3.5 mph - 0.06 in Snow Light Snow
10:48 AM 33.8 °F - 32.0 °F 93% 29.96 in 3.0 mi Calm Calm - 0.08 in Snow Light Snow
10:53 AM 33.1 °F - 32.0 °F 96% 29.97 in 3.0 mi Calm Calm - 0.09 in Snow Light Snow
10:58 AM 33.8 °F - 32.0 °F 93% 29.96 in 2.5 mi Calm Calm - 0.00 in Snow Light Snow
11:15 AM 32.0 °F 28.7 °F 32.0 °F 100% 29.96 in 1.5 mi WNW 3.5 mph - 0.02 in Snow Light Snow
11:53 AM 32.0 °F - 32.0 °F 100% 29.99 in 1.2 mi Calm Calm - 0.05 in Snow Light Snow
12:53 PM 32.0 °F 27.5 °F 32.0 °F 100% 29.96 in 1.2 mi NW 4.6 mph - 0.06 in Snow Light Snow
1:11 PM 33.8 °F 28.6 °F 32.0 °F 93% 29.94 in 1.5 mi NNW 5.8 mph - 0.02 in Snow Light Snow
1:53 PM 33.1 °F 24.4 °F 30.9 °F 92% 29.95 in 1.8 mi North 11.5 mph - 0.06 in Snow Light Snow
2:53 PM 32.0 °F 20.8 °F 30.0 °F 92% 29.96 in 1.2 mi North 17.3 mph - 0.03 in Snow Light Snow
3:07 PM 30.2 °F 18.9 °F 28.4 °F 93% 29.94 in 2.0 mi North 16.1 mph - 0.00 in Snow Light Snow
3:23 PM 30.2 °F 19.3 °F 28.4 °F 93% 29.95 in 1.5 mi North 15.0 mph - 0.01 in Snow Light Snow
3:31 PM 30.2 °F 19.3 °F 28.4 °F 93% 29.95 in 1.8 mi North 15.0 mph - 0.01 in Snow Light Snow
3:39 PM 30.2 °F 20.8 °F 28.4 °F 93% 29.95 in 2.5 mi North 11.5 mph - 0.01 in Snow Light Snow
3:53 PM 30.9 °F 19.8 °F 28.0 °F 89% 29.99 in 2.0 mi North 16.1 mph - 0.01 in Snow Light Snow
4:31 PM 30.2 °F 21.3 °F 28.4 °F 93% 29.98 in 3.0 mi North 10.4 mph - 0.00 in Snow Light Snow
4:44 PM 30.2 °F 21.3 °F 28.4 °F 93% 29.99 in 2.5 mi North 10.4 mph - 0.00 in Snow Light Snow
4:53 PM 30.0 °F 23.2 °F 28.0 °F 92% 30.03 in 2.5 mi North 6.9 mph - 0.00 in Snow Light Snow
4:55 PM 30.2 °F 23.4 °F 28.4 °F 93% 29.99 in 3.0 mi North 6.9 mph - 0.00 in Snow Light Snow
5:06 PM 30.2 °F 21.3 °F 28.4 °F 93% 30.00 in 3.0 mi NNW 10.4 mph - 0.00 in Snow Light Snow
5:53 PM 28.9 °F 19.2 °F 26.1 °F 89% 30.08 in 5.0 mi NNW 11.5 mph - 0.00 in Snow Light Snow
6:01 PM 28.4 °F 18.5 °F 26.6 °F 93% 30.02 in 7.0 mi NNW 11.5 mph - 0.00 in Snow Light Snow
6:53 PM 28.9 °F 21.1 °F 27.0 °F 92% 30.12 in 7.0 mi NW 8.1 mph - 0.00 in Snow Light Snow
7:16 PM 28.4 °F 19.7 °F 26.6 °F 93% 30.06 in 6.0 mi NNW 9.2 mph - 0.00 in Snow Light Snow
7:53 PM 28.9 °F 21.1 °F 26.1 °F 89% 30.14 in 10.0 mi NNW 8.1 mph - 0.00 in Snow Light Snow
8:10 PM 28.4 °F 19.7 °F 26.6 °F 93% 30.08 in 9.0 mi North 9.2 mph - 0.00 in   Overcast
8:53 PM 28.0 °F 21.7 °F 27.0 °F 96% 30.17 in 9.0 mi NNW 5.8 mph - 0.00 in   Overcast
10:13 PM 28.4 °F 22.2 °F 26.6 °F 93% 30.08 in 7.0 mi NNW 5.8 mph - 0.00 in Snow Light Snow
10:53 PM 27.0 °F 23.0 °F 25.0 °F 92% 30.18 in 10.0 mi NNW 3.5 mph - 0.00 in   Mostly Cloudy
11:53 PM 26.1 °F 19.4 °F 24.1 °F 92% 30.20 in 10.0 mi NNW 5.8 mph - N/A   Overcast